Total_Precipitation_Accumulation
0.09 0.22 0.55 0.93 1.47 1.75 1.37 0.71 0.53 0.39 0.37 0.50 0.49 0.41 0.45 0.62 0.91 1.58 1.47 1.50 1.28 1.13 1.12 1.29 1.41 1.19 1.10 1.06 1.17 1.27 1.24 1.28 1.33 1.39 1.36 1.50 1.50 1.36 1.34 1.45 1.55 1.71 1.85 1.74 1.68 1.49 1.27 1.15 1.06
0.16 0.33 0.72 1.16 1.74 1.94 1.23 0.55 0.41 0.34 0.41 0.49 0.41 0.35 0.45 0.50 0.53 0.84 1.27 1.41 1.04 0.87 0.86 0.91 1.06 1.00 0.94 0.87 0.95 1.00 1.07 1.14 1.24 1.37 1.31 1.33 1.35 1.30 1.33 1.48 1.56 1.71 1.68 1.50 1.46 1.30 1.10 0.97 0.90
0.26 0.43 0.80 1.14 1.29 1.30 0.71 0.34 0.30 0.30 0.43 0.47 0.40 0.37 0.46 0.64 0.75 0.97 1.02 0.96 0.76 0.68 0.71 0.78 0.81 0.78 0.77 0.77 0.81 0.83 0.94 1.07 1.18 1.26 1.28 1.30 1.28 1.31 1.41 1.51 1.62 1.58 1.42 1.36 1.35 1.17 1.02 0.84 0.75
0.30 0.49 0.73 0.86 0.84 0.66 0.38 0.26 0.25 0.30 0.43 0.39 0.36 0.52 0.67 0.81 0.74 0.78 0.74 0.66 0.56 0.59 0.64 0.68 0.69 0.59 0.62 0.68 0.71 0.77 0.90 1.07 1.17 1.16 1.24 1.32 1.41 1.41 1.45 1.48 1.49 1.38 1.26 1.26 1.13 0.98 0.89 0.74 0.68
0.33 0.54 0.79 0.75 0.59 0.40 0.30 0.26 0.26 0.27 0.28 0.38 0.48 0.77 0.98 0.96 0.66 0.72 0.74 0.61 0.47 0.55 0.60 0.59 0.62 0.54 0.58 0.66 0.70 0.79 0.95 1.16 1.24 1.17 1.17 1.25 1.37 1.41 1.36 1.28 1.25 1.24 1.14 1.03 0.97 0.91 0.79 0.74 0.73
0.38 0.51 0.60 0.53 0.39 0.26 0.28 0.27 0.23 0.24 0.32 0.44 0.57 0.69 1.04 1.00 0.79 0.93 0.86 0.73 0.59 0.58 0.60 0.65 0.69 0.65 0.65 0.71 0.76 0.85 1.07 1.30 1.28 1.17 1.16 1.16 1.20 1.21 1.16 1.11 1.11 1.11 1.02 0.94 0.90 0.84 0.76 0.73 0.75
0.29 0.35 0.40 0.33 0.26 0.23 0.22 0.22 0.23 0.26 0.42 0.55 0.63 0.83 1.24 1.32 1.01 0.96 1.00 0.97 0.77 0.75 0.86 0.86 0.77 0.79 0.88 1.00 1.06 1.12 1.33 1.40 1.31 1.28 1.19 1.15 1.12 1.11 1.12 1.08 1.06 1.04 0.98 0.93 0.84 0.77 0.69 0.68 0.73
0.17 0.20 0.21 0.17 0.15 0.19 0.16 0.17 0.22 0.28 0.43 0.59 0.74 0.99 1.45 1.39 1.10 1.05 1.11 1.25 1.04 0.94 0.93 0.95 0.85 0.84 0.90 1.11 1.39 1.45 1.45 1.43 1.39 1.29 1.22 1.15 1.07 1.07 1.08 1.01 1.14 1.10 1.09 1.06 1.00 0.88 0.74 0.76 0.83
0.11 0.18 0.15 0.11 0.09 0.12 0.12 0.15 0.21 0.31 0.45 0.58 0.83 1.03 1.13 1.01 1.13 1.17 1.34 1.60 1.58 1.32 1.22 1.12 0.89 0.94 1.09 1.27 1.43 1.52 1.51 1.55 1.59 1.51 1.38 1.39 1.51 1.43 1.51 1.34 1.57 1.46 1.43 1.35 1.31 1.19 1.15 1.12 0.98
0.10 0.15 0.11 0.06 0.05 0.08 0.09 0.12 0.21 0.43 0.64 0.94 1.20 1.17 0.96 0.93 1.20 1.37 1.56 1.89 1.95 1.82 1.63 1.39 1.19 1.19 1.35 1.33 1.34 1.45 1.47 1.56 1.62 1.74 1.70 2.01 2.26 2.12 1.66 1.82 2.13 2.11 2.00 1.89 1.89 1.97 1.75 1.48 1.28
0.07 0.07 0.05 0.06 0.04 0.05 0.06 0.10 0.16 0.32 0.83 1.37 1.61 1.54 1.33 1.15 1.37 1.71 2.05 2.36 2.18 1.96 1.84 1.75 1.57 1.50 1.38 1.44 1.44 1.60 1.75 2.05 1.89 1.82 1.91 2.33 2.15 1.89 1.76 1.98 2.32 2.58 2.45 2.32 2.40 2.49 2.04 2.08 2.33
0.04 0.03 0.03 0.03 0.03 0.03 0.05 0.09 0.19 0.33 0.81 1.10 1.32 1.41 1.42 1.40 1.47 1.71 2.04 2.34 2.56 2.50 2.32 2.15 2.02 1.88 1.88 1.81 1.69 1.65 1.74 1.93 1.97 2.13 1.97 2.30 2.44 2.33 2.33 2.58 2.58 2.77 2.92 3.29 3.07 3.12 2.91 2.84 2.70
0.06 0.04 0.03 0.02 0.03 0.03 0.05 0.11 0.23 0.36 0.64 0.72 0.83 0.97 1.24 1.46 1.81 2.14 2.29 2.63 2.77 2.91 2.73 2.60 2.50 2.47 2.48 2.40 2.25 1.84 1.94 2.00 2.09 2.34 2.35 2.46 2.73 2.81 2.87 2.87 2.80 2.58 2.92 3.33 3.58 3.23 3.48 3.50 3.10
0.06 0.06 0.03 0.03 0.04 0.05 0.07 0.13 0.25 0.42 0.56 0.63 0.74 0.94 1.20 1.52 1.81 2.25 2.55 2.95 2.96 3.03 3.16 3.27 3.17 3.10 3.16 3.03 2.90 2.66 2.41 2.57 2.52 2.63 2.81 2.93 3.18 3.32 3.36 3.22 3.10 2.75 2.73 3.03 3.27 3.28 3.66 3.49 3.30
0.05 0.06 0.09 0.08 0.07 0.10 0.17 0.29 0.44 0.58 0.63 0.82 0.92 1.16 1.32 1.63 2.00 2.09 2.28 2.54 2.86 3.16 3.64 3.94 3.98 3.93 3.96 3.87 3.59 3.26 3.09 3.11 3.34 3.49 3.47 3.41 3.55 3.85 3.70 3.49 3.09 2.85 2.86 3.08 3.04 3.06 3.19 3.07 2.97
0.06 0.12 0.22 0.19 0.12 0.13 0.23 0.54 0.63 0.66 0.78 1.00 1.05 1.28 1.57 1.66 2.00 2.14 2.18 2.39 2.99 3.47 4.05 4.37 4.52 4.78 4.71 4.69 4.40 3.91 3.69 3.65 3.70 3.77 3.81 3.66 3.69 3.61 3.62 3.29 2.87 2.90 2.91 2.97 3.08 2.94 3.01 3.01 3.03
0.13 0.18 0.29 0.32 0.18 0.19 0.26 0.59 0.71 0.71 0.91 1.08 1.23 1.30 1.44 1.65 2.07 2.37 2.53 2.67 3.20 3.80 4.47 4.91 5.41 5.71 5.62 5.35 4.91 4.46 4.36 4.20 4.03 4.02 3.97 3.82 3.58 3.39 3.52 3.21 3.03 2.95 2.92 2.80 2.58 3.00 3.15 3.16 3.13
0.19 0.20 0.28 0.36 0.23 0.22 0.36 0.57 0.77 0.85 1.01 1.18 1.23 1.23 1.37 1.67 1.90 2.28 2.62 3.01 3.44 3.87 4.62 5.28 5.87 6.11 5.88 5.36 5.01 4.88 4.67 4.35 4.10 3.85 3.68 3.45 3.28 3.04 3.23 2.97 2.88 2.97 3.07 2.91 2.90 3.21 3.26 2.98 3.02
0.13 0.18 0.26 0.31 0.22 0.26 0.42 0.61 0.80 0.94 1.08 1.16 1.33 1.31 1.52 1.78 1.95 2.33 2.69 3.14 3.59 4.09 4.82 5.46 5.91 5.93 5.78 5.47 5.12 4.86 4.35 4.01 3.73 3.45 3.25 3.01 2.73 2.66 3.03 2.81 3.11 2.93 2.85 2.70 2.66 2.78 2.83 2.58 2.78
0.11 0.19 0.32 0.32 0.22 0.27 0.45 0.69 0.94 1.00 0.95 0.98 1.19 1.30 1.39 1.60 1.90 2.26 2.77 3.06 3.42 3.93 4.48 4.90 4.92 4.61 4.52 4.58 4.49 4.24 4.22 4.02 3.89 3.64 3.43 3.01 2.84 2.75 2.60 2.79 2.62 2.59 2.68 2.49 2.40 2.62 2.64 2.36 2.67
0.10 0.17 0.25 0.28 0.29 0.35 0.51 0.89 1.13 1.13 0.97 0.89 0.93 1.05 1.17 1.31 1.52 1.87 2.44 2.75 2.94 3.41 3.74 3.77 3.68 3.52 3.60 3.72 3.71 3.76 3.96 3.96 3.91 3.76 3.48 3.16 3.00 2.91 2.79 2.68 2.50 2.44 2.30 2.40 2.44 2.50 2.54 2.49 2.45
0.12 0.11 0.14 0.17 0.28 0.55 0.63 1.09 1.40 1.47 1.32 1.05 0.94 1.05 1.12 1.22 1.28 1.58 1.92 2.15 2.42 2.68 2.77 2.75 2.84 2.89 2.95 3.05 3.12 2.99 2.99 3.18 3.38 3.58 3.63 3.54 3.28 3.04 2.78 2.62 2.41 2.25 2.12 2.37 2.09 2.19 2.48 2.63 2.35
0.09 0.08 0.10 0.16 0.25 0.43 0.57 0.85 1.34 1.63 1.69 1.31 1.05 0.96 0.92 1.06 1.31 1.52 1.64 1.80 1.89 1.93 2.02 2.07 2.36 2.70 2.85 2.97 3.09 2.98 2.68 2.66 2.70 2.83 3.00 3.00 2.96 2.79 2.48 2.40 2.34 2.17 2.04 2.07 2.06 2.34 2.36 2.38 2.32
0.09 0.13 0.22 0.33 0.49 0.76 0.72 0.78 1.22 1.47 1.58 1.25 1.03 0.94 0.82 0.83 1.01 1.24 1.53 1.62 1.58 1.54 1.66 1.86 2.16 2.60 2.85 2.94 2.89 2.85 2.76 2.72 2.64 2.63 2.69 2.57 2.53 2.44 2.24 2.16 2.25 2.10 2.01 2.03 2.02 2.14 2.23 2.38 2.48
0.10 0.19 0.57 0.98 1.31 1.34 0.83 0.78 1.02 1.06 1.01 1.02 0.88 0.81 0.85 0.78 0.78 0.79 0.99 1.25 1.22 1.17 1.34 1.59 1.78 2.13 2.38 2.50 2.48 2.42 2.51 2.59 2.48 2.35 2.28 2.21 2.10 2.01 1.96 2.04 2.16 2.02 1.97 2.04 2.19 2.18 2.16 2.31 2.41
0.10 0.15 0.42 0.72 0.92 1.05 0.90 1.20 1.32 0.99 0.83 0.74 0.63 0.60 0.68 0.63 0.58 0.57 0.65 0.82 1.04 1.04 1.09 1.20 1.45 1.72 1.93 1.99 2.11 2.23 2.37 2.45 2.39 2.54 2.35 2.19 1.91 1.76 1.81 2.02 2.10 2.03 1.95 1.94 2.30 2.28 2.29 2.38 2.36
0.12 0.12 0.17 0.28 0.44 0.74 1.04 1.26 1.21 1.02 0.95 0.76 0.58 0.51 0.52 0.51 0.50 0.50 0.57 0.77 0.80 0.80 0.84 0.95 1.20 1.41 1.56 1.70 1.87 1.95 1.93 1.96 2.12 2.28 2.27 2.10 2.02 1.82 1.90 1.96 2.15 2.24 2.31 2.35 2.48 2.41 2.40 2.58 2.54
0.12 0.12 0.14 0.21 0.38 0.60 0.93 1.31 1.39 1.29 1.11 0.93 0.81 0.61 0.50 0.51 0.52 0.49 0.50 0.59 0.63 0.63 0.74 0.98 1.19 1.22 1.42 1.72 1.93 1.84 1.85 1.83 1.99 2.01 2.00 2.02 1.97 1.95 1.98 1.98 2.06 2.19 2.32 2.38 2.52 2.52 2.56 2.73 2.73
0.16 0.14 0.13 0.17 0.22 0.38 0.79 1.06 1.01 1.05 0.98 0.93 0.81 0.68 0.62 0.56 0.55 0.54 0.54 0.55 0.66 0.58 0.66 0.84 0.98 1.13 1.42 1.73 1.96 1.99 1.89 1.91 1.97 1.85 1.80 1.92 1.94 1.92 1.96 1.96 1.94 1.95 2.09 2.29 2.49 2.45 2.62 2.74 2.78
0.17 0.17 0.17 0.23 0.23 0.26 0.43 0.72 0.61 0.70 0.81 0.83 0.67 0.61 0.59 0.49 0.47 0.44 0.43 0.50 0.48 0.47 0.57 0.88 1.20 1.55 1.73 2.00 2.31 2.37 2.14 1.94 1.80 1.64 1.63 1.78 1.95 1.98 1.95 1.92 1.91 1.87 1.96 2.21 2.38 2.49 2.74 2.87 2.78